RADUGA 12 [-]

Last updated on July 6, 2021, 3:35 p.m. UTC

1 13974U 83028A   21186.84980007 -.00000189  00000-0  00000-0 0  9998
2 13974  11.8526 321.7698 0004249  94.9535 258.3020  1.00269515151252
UTC
Height (km)
Latitude
Longitude
Inclination
Orbital Period
UTC large
Height (km)
Speed (km/s)
/
Latitude / Longitude
Inclination (degrees)
Orbital Period (minutes)
Azimuth
Elevation
Range (km)
Doppler Factor
iOS Compass Heading
iOS Angle